Location: Ferintosh
(52.7647°N, 112.9692°W)
Time: 15:03:45
(UTC+00:00)

Transit 2A Rocket - Pass Details

Date: 25 May 2024
Orbit: 583 x 910 km, 66.7° (Epoch: 22 June)

Event Time Altitude Azimuth Distance (km) Brightness Sun altitude
Rises 16:30:47 0° 314° (NW) 3,311 7.9 43.6°
Reaches altitude 10° 16:33:31 10° 326° (NNW) 2,432 7.3 43.9°
Maximum altitude 16:38:19 27° 24° (NNE) 1,596 6.9 44.6°
Drops below altitude 10° 16:43:20 10° 82° (E) 2,565 8.4 45.3°
Sets 16:46:18 0° 94° (E) 3,527 9.1 45.7°
